CAPE
0 0 0 0 0 0 0 0 0 0 0 0 0 0 0 0 0 0 0 0 0 0 0 0 0 0 0 0 0 0 10 0 0 1883 2022 1154 1090 1341 1615 1245 1159 841 562 273
0 0 0 0 0 0 0 0 0 0 0 0 0 0 0 0 0 1 2 0 0 0 0 0 0 0 0 0 0 0 2 0 28 1841 2214 1905 1300 1292 1502 1586 1274 964 690 493
0 0 0 0 0 0 0 0 0 0 0 0 0 0 0 0 0 31 32 17 6 8 0 0 0 0 0 0 0 10 4 0 0 1029 1944 2042 2138 1250 1167 1205 1292 1330 1045 817
0 0 0 0 0 0 0 0 0 0 0 0 0 0 0 10 1 0 0 7 17 3 18 18 4 12 2 0 0 11 1 0 0 2 1562 1970 1868 1637 1206 1218 1074 1309 1243 1132
0 0 0 0 0 0 0 0 0 1 5 3 0 13 7 0 10 40 10 9 34 9 9 18 8 0 28 9 0 15 0 0 0 271 572 1883 1985 1741 1618 1340 1037 1022 1237 1253
0 0 0 0 0 0 1 8 12 0 0 3 0 7 0 2 0 47 72 115 57 42 25 9 51 12 9 29 20 0 56 121 482 1153 568 1981 1872 1847 1559 1206 1088 925 1257 1260
0 0 0 0 0 0 4 8 6 0 0 0 13 0 2 30 8 0 23 6 2 3 42 68 68 41 44 29 54 24 285 681 1094 1139 1531 1854 1921 2041 1768 1401 1060 913 1013 1059
0 0 0 0 0 0 5 57 30 8 0 0 0 0 73 1 0 1 7 0 45 33 125 94 56 84 150 198 84 140 426 848 1425 1346 1451 1434 1748 1917 1800 1355 1026 892 910 1047
0 0 0 0 0 14 22 67 0 0 0 0 2 5 2 0 0 0 0 0 10 118 85 138 11 220 267 243 274 367 393 958 1215 1497 1306 1293 1531 1630 1419 1184 1091 889 889 755
1 0 0 0 0 0 51 83 17 43 16 0 0 0 17 0 0 2 1 1 21 79 107 30 70 211 280 331 293 290 228 263 911 1286 1404 1374 1241 1426 1445 1338 1217 879 772 444
3 1 0 0 1 0 5 13 38 3 10 8 13 0 0 1 18 14 20 10 14 1 0 0 41 100 220 213 276 331 479 240 157 260 1590 1390 1028 953 1261 1175 1306 1373 1103 414
0 0 0 0 0 0 1 1 50 0 0 3 16 0 0 0 7 14 2 3 0 0 1 2 4 9 32 132 184 235 383 577 318 159 383 1331 786 950 962 1197 1249 1408 902 436
4 3 2 0 0 15 2 8 13 3 12 0 2 0 0 0 1 1 0 0 0 0 0 0 0 7 5 100 96 53 109 200 248 485 149 761 1039 1277 1254 1228 1372 834 353 233
7 8 10 0 3 14 7 13 26 16 0 0 0 0 0 0 0 0 0 0 0 0 0 0 0 2 6 21 44 53 21 64 153 299 440 359 1419 1113 1281 1228 1301 348 189 74
5 1 8 17 16 21 27 35 8 7 37 36 4 1 0 0 0 0 8 6 0 0 0 0 0 0 1 3 6 7 23 20 70 148 525 505 1801 1340 1157 760 614 287 155 34
5 0 2 2 13 22 25 37 3 0 1 7 0 0 0 2 0 0 0 2 5 0 0 0 0 0 0 0 6 1 21 20 22 121 275 777 1564 1405 893 501 144 44 2 2
2 10 27 0 19 17 1 11 3 2 0 0 0 0 0 0 3 1 0 6 5 0 0 0 0 4 0 0 0 0 9 1 4 50 148 642 1368 1184 714 498 131 25 3 3
7 31 76 24 5 5 7 1 0 0 0 0 0 0 2 0 0 2 1 3 2 1 0 0 0 0 0 0 0 0 0 0 1 6 88 312 1154 1056 908 394 79 1 1 1
142 39 35 19 18 1 0 0 0 2 0 0 0 1 0 1 2 0 0 0 0 1 3 4 6 0 0 0 0 0 0 0 1 0 34 176 897 944 856 258 1 2 1 2
29 15 38 18 28 25 20 10 0 26 0 0 0 0 1 1 2 0 0 2 2 2 3 2 2 0 0 0 0 0 0 0 12 0 0 608 765 454 353 2 1 2 2 5
11 7 6 13 16 1 60 7 18 0 0 0 2 1 1 2 2 1 2 3 1 1 1 0 1 1 0 0 0 0 0 13 18 0 13 866 359 73 3 4 2 2 3 4
27 12 0 12 11 3 41 1 2 1 1 2 1 3 3 3 4 5 3 3 2 0 2 0 1 1 0 0 1 0 3 31 10 1 359 510 107 3 4 3 5 5 5 3
4 22 2 28 5 8 59 82 0 0 0 1 2 2 2 3 2 3 3 2 5 0 1 2 1 1 2 0 3 0 0 37 15 29 675 145 3 3 5 5 5 5 4 4
2 28 19 27 3 30 50 0 0 0 2 3 3 2 2 3 4 2 3 4 3 0 0 1 1 1 0 0 0 0 11 23 8 193 263 9 3 4 3 3 4 5 5 4
2 8 5 23 13 0 0 0 7 0 1 3 2 2 2 3 3 3 3 3 4 1 2 0 0 0 0 0 0 3 35 6 12 259 6 2 3 3 3 3 3 4 0 0
19 18 15 12 23 1 0 7 0 1 3 3 2 2 2 3 2 2 2 1 2 1 1 3 5 11 10 2 30 26 4 9 54 2 2 2 2 1 2 0 0 0 0 0
CIN
-0 -0 -0 -0 -0 -0 -0 -0 -0 -0 -0 -0 -0 -0 -0 -0 -0 -0 -0 -0 -0 -0 -0 -0 -0 -0 -0 -0 -0 -0 -22 -0 -0 -3 -1 -16 -13 -17 -6 -5 -5 -141 -130 -174
-0 -0 -0 -0 -0 -0 -0 -0 -0 -0 -0 -0 -0 -0 -0 -0 -0 -5 -9 -0 -0 -0 -0 -0 -0 -0 -0 -0 -0 -0 -4 -0 -116 -1 -0 -11 -34 -15 -22 -9 -6 -64 -137 -129
-0 -0 -0 -0 -0 -0 -0 -0 -0 -0 -0 -0 -0 -0 -0 -0 -0 -5 -12 -20 -17 -17 -0 -0 -0 -0 -0 -0 -0 -13 -25 -0 -0 -3 -2 -1 -2 -12 -31 -23 -8 -27 -86 -56
-0 -0 -0 -0 -0 -0 -0 -0 -0 -0 -0 -0 -0 -0 -0 -23 -1 -7 -12 -65 -21 -2 -4 -4 -3 -3 -6 -0 -0 -19 -6 -0 -0 -0 -2 -2 -0 -16 -37 -33 -9 -10 -38 -12
-0 -0 -0 -0 -0 -0 -0 -0 -0 -3 -4 -3 -0 -14 -11 -0 -60 -15 -67 -34 -18 -50 -11 -4 -7 -0 -6 -7 -0 -6 -0 -0 -0 -50 -20 -6 -1 -8 -34 -47 -26 -7 -6 -12
-0 -0 -0 -0 -0 -0 -2 -6 -5 -0 -1 -2 -8 -24 -0 -58 -6 -56 -22 -16 -5 -27 -30 -11 -3 -6 -8 -6 -7 -0 -23 -38 -49 -4 -34 -3 -6 -15 -12 -12 -11 -5 -5 -16
-0 -0 -0 -0 -0 -0 -3 -6 -8 -0 -0 -0 -12 -0 -14 -77 -185 -0 -27 -28 -79 -52 -16 -8 -12 -4 -1 -8 -5 -8 -20 -26 -30 -6 -2 -1 -4 -4 -14 -19 -21 -15 -13 -7
-0 -0 -0 -0 -0 -0 -2 -5 -7 -3 -0 -0 -0 -0 -20 -11 -15 -30 -156 -3 -2 -3 -7 -49 -55 -37 -44 -16 -4 -8 -11 -24 -17 -14 -12 -13 -4 -1 -3 -15 -18 -28 -19 -4
-0 -0 -0 -0 -0 -4 -5 -2 -0 -0 -3 -1 -25 -22 -124 -11 -0 -0 -16 -0 -152 -28 -23 -37 -0 -6 -36 -16 -66 -26 -7 -21 -19 -9 -5 -10 -7 -2 -9 -17 -27 -33 -18 -4
-1 -0 -0 -0 -0 -0 -4 -2 -22 -15 -3 -0 -0 -0 -71 -45 -0 -30 -18 -48 -6 -24 -62 -104 -47 -50 -76 -46 -43 -29 -47 -38 -8 -7 -5 -9 -20 -11 -5 -4 -15 -17 -15 -28
-2 -0 -0 -0 -0 -0 -2 -44 -13 -26 -2 -1 -0 -0 -8 -1 -18 -23 -18 -17 -6 -81 -32 -28 -11 -65 -78 -60 -51 -38 -23 -39 -43 -21 -2 -10 -17 -26 -13 -4 -7 -7 -10 -49
-0 -0 -0 -0 -0 -0 -10 -13 -4 -0 -0 -2 -1 -0 -0 -0 -16 -10 -35 -7 -0 -0 -7 -5 -17 -16 -29 -43 -67 -67 -37 -35 -22 -38 -14 -5 -9 -33 -28 -16 -17 -1 -5 -34
-11 -0 -1 -0 -0 -2 -13 -4 -4 -9 -10 -0 -3 -0 -0 -0 -8 -13 -0 -0 -0 -0 -0 -0 -0 -14 -9 -39 -72 -76 -67 -47 -41 -13 -22 -3 -8 -17 -28 -28 -6 -3 -29 -72
-19 -2 -1 -0 -1 -2 -3 -2 -4 -5 -6 -3 -0 -0 -0 -0 -0 -0 -0 -0 -0 -0 -0 -0 -0 -3 -33 -15 -58 -53 -114 -108 -64 -51 -12 -6 -7 -17 -24 -30 -1 -54 -80 -201
-14 -8 -1 -1 -0 -2 -2 -5 -23 -21 -6 -4 -18 -1 -0 -0 -0 -0 -1 -1 -0 -0 -0 -0 -0 -0 -2 -12 -15 -30 -101 -171 -127 -89 -37 -16 -12 -17 -21 -102 -86 -130 -164 -253
-8 -0 -1 -2 -1 -3 -3 -4 -2 -21 -2 -17 -0 -0 -0 -20 -0 -0 -0 -0 -0 -0 -0 -0 -0 -0 -0 -0 -6 -0 -124 -158 -241 -108 -76 -27 -7 -30 -103 -159 -223 -367 -0 -0
-0 -0 -0 -0 -2 -3 -0 -38 -5 -2 -0 -0 -0 -0 -0 -0 -0 -0 -0 -0 -0 -0 -0 -0 -0 -4 -0 -0 -0 -0 -3 -2 -210 -171 -107 -55 -7 -22 -126 -144 -248 -349 -0 -0
-4 -9 -0 -1 -2 -0 -5 -27 -0 -0 -0 -0 -0 -0 -0 -0 -0 -0 -1 -0 -0 -0 -0 -0 -0 -0 -0 -0 -0 -0 -0 -2 -2 -182 -104 -69 -5 -27 -75 -135 -258 -0 -0 -0
-4 -1 -1 -1 -0 -2 -0 -13 -0 -20 -0 -0 -0 -33 -0 -0 -0 -0 -0 -0 -0 -0 -0 -0 -0 -0 -0 -0 -0 -0 -0 -0 -0 -0 -120 -67 -23 -18 -46 -140 -28 -0 -0 -0
-8 -7 -3 -0 -0 -1 -14 -26 -4 -41 -0 -0 -0 -0 -0 -0 -0 -0 -0 -0 -0 -0 -0 -0 -0 -0 -0 -0 -0 -0 -0 -0 -2 -0 -0 -18 -85 -140 -146 -0 -0 -0 -0 -0
-2 -2 -1 -2 -1 -1 -4 -45 -119 -0 -0 -0 -0 -0 -0 -0 -0 -0 -0 -0 -0 -0 -0 -0 -0 -0 -0 -0 -0 -0 -0 -0 -1 -0 -41 -23 -108 -240 -134 -0 -0 -0 -0 -0
-1 -2 -0 -1 -0 -1 -51 -22 -3 -0 -0 -0 -0 -0 -0 -0 -0 -0 -0 -0 -0 -0 -0 -0 -0 -0 -0 -0 -5 -0 -29 -1 -2 -1 -6 -47 -205 -0 -0 -0 -0 -0 -0 -0
-3 -3 -1 -1 -1 -12 -2 -4 -0 -0 -0 -0 -0 -0 -0 -0 -0 -0 -0 -0 -12 -0 -2 -0 -0 -0 -0 -0 -2 -0 -3 -2 -3 -9 -0 -109 -3 -0 -0 -0 -0 -0 -0 -0
-2 -1 -0 -0 -8 -1 -13 -0 -0 -0 -0 -0 -0 -0 -0 -0 -0 -0 -0 -0 -0 -0 -0 -0 -0 -0 -0 -0 -0 -0 -6 -2 -12 -8 -34 -209 -0 -0 -0 -0 -0 -0 -0 -0
-9 -2 -12 -0 -1 -0 -0 -0 -0 -0 -0 -0 -0 -0 -0 -0 -0 -0 -0 -0 -8 -1 -1 -0 -0 -0 -0 -0 -0 -7 -0 -7 -5 -2 -43 -0 -0 -0 -0 -0 -0 -0 -0 -0
-7 -24 -0 -0 -0 -0 -0 -0 -2 -0 -0 -0 -0 -0 -0 -0 -0 -0 -0 -0 -0 -0 -0 -0 -16 -1 -18 -21 -7 -1 -13 -5 -1 -0 -0 -0 -0 -0 -0 -0 -0 -0 -0 -0
Wind_Speed
28 24 25 33 30 35 40 42 45 47 44 44 47 50 54 49 46 46 47 49 51 49 45 42 40 40 40 36 37 32 29 30 31 32 31 31 36 29 29 22 19 16 14 16
26 27 30 34 31 32 36 40 44 46 43 45 48 52 44 40 38 38 44 46 46 46 48 43 42 41 40 35 34 30 29 28 31 33 32 32 33 33 32 27 22 19 16 16
31 32 28 26 28 36 39 41 44 48 48 44 44 45 41 44 46 37 34 41 32 38 35 34 38 38 39 37 35 31 29 30 32 35 32 33 34 35 35 32 24 20 18 19
28 23 35 31 34 34 38 37 41 43 47 52 38 58 34 37 39 28 17 19 30 22 29 29 33 34 35 38 35 32 29 29 31 34 34 34 35 34 34 34 28 20 20 20
22 31 32 32 31 32 35 37 40 46 48 48 36 36 38 44 36 30 24 10 16 27 30 26 20 29 30 32 37 33 31 30 31 32 35 33 36 36 32 33 29 25 19 20
19 23 31 26 31 29 28 36 45 43 41 40 37 26 33 31 22 12 16 6 19 22 26 23 25 16 24 28 32 35 31 30 28 31 32 33 35 36 36 35 32 28 26 23
28 28 21 33 37 32 40 43 42 41 33 30 35 31 38 30 30 34 33 28 29 27 23 24 25 13 17 22 25 29 28 28 26 29 30 32 33 35 37 36 32 31 29 26
26 29 30 38 38 39 34 32 31 32 29 41 38 30 26 31 29 30 30 33 30 24 23 22 23 21 18 22 17 24 24 26 25 26 28 30 32 32 36 38 35 33 32 30
31 23 36 34 29 30 32 28 26 20 10 33 32 31 29 24 26 30 30 33 32 28 28 23 2 16 17 21 17 20 21 21 23 25 25 27 29 31 34 36 34 34 35 32
26 31 33 30 32 18 12 10 24 20 30 28 33 34 19 28 38 27 27 15 25 31 28 27 25 21 22 20 21 22 22 20 20 21 21 23 24 28 33 34 36 36 36 29
29 27 27 30 27 19 20 31 17 29 18 21 29 31 37 42 31 34 38 36 35 28 26 33 26 24 24 23 23 24 23 28 28 26 20 21 22 25 29 34 36 36 34 28
28 26 29 29 16 6 11 30 15 34 27 25 33 41 39 37 45 43 40 38 39 39 35 30 30 23 25 23 24 25 26 26 30 35 34 27 23 17 23 30 32 33 33 29
25 25 35 32 18 24 15 25 30 26 33 34 31 36 44 48 46 43 46 48 45 45 45 42 34 35 24 24 22 24 26 27 29 31 37 38 17 18 22 26 25 22 19 17
20 21 19 22 18 19 36 27 22 12 18 32 25 38 33 45 47 50 53 52 52 50 49 47 44 35 31 27 25 23 24 26 28 29 32 33 25 22 22 25 22 17 16 13
18 21 18 15 18 20 31 30 21 41 28 18 30 32 40 47 54 59 57 54 54 51 47 45 45 42 37 35 27 33 27 25 27 29 31 31 22 20 19 17 15 14 15 14
15 20 22 19 16 18 35 33 38 27 23 26 38 29 46 49 54 56 56 57 54 54 50 48 49 47 46 39 38 31 28 27 27 29 30 30 22 16 16 14 13 12 13 12
16 18 24 20 23 43 38 30 22 29 28 36 34 41 50 54 59 62 62 56 55 56 60 59 58 50 48 46 42 38 33 26 25 29 30 31 20 15 14 13 12 10 11 13
15 15 19 23 26 35 35 36 30 30 30 31 40 40 42 63 57 35 40 27 44 46 46 49 52 51 46 48 47 42 35 29 27 30 32 31 19 17 14 11 10 8 5 9
6 18 27 24 23 42 41 30 35 40 31 32 32 39 38 33 26 27 24 24 27 29 42 44 42 46 47 50 48 43 37 32 33 32 33 30 21 17 15 12 10 8 4 4
21 21 21 22 23 40 40 37 40 38 36 27 45 32 29 24 23 28 38 41 35 42 31 27 43 40 42 42 43 43 40 38 34 33 33 25 18 15 14 12 11 7 5 2
34 30 20 17 36 35 32 44 46 43 29 50 40 27 26 20 17 26 29 26 26 28 33 23 26 39 43 38 40 42 42 43 33 36 33 19 16 15 13 12 11 9 5 3
28 27 27 22 38 34 44 47 38 27 24 35 27 24 21 19 22 22 23 22 28 15 19 8 15 29 43 38 39 39 42 39 35 33 21 16 13 13 14 13 11 10 7 6
26 23 23 20 38 32 42 45 40 46 36 35 33 26 18 20 22 20 20 22 9 15 17 22 15 32 40 35 36 40 38 33 32 27 18 16 15 13 14 15 14 12 10 9
27 27 25 40 32 40 45 47 51 41 32 26 27 26 15 12 18 20 16 15 5 15 17 18 7 5 31 37 35 38 37 32 32 22 21 18 17 15 16 15 14 13 14 11
24 22 22 31 38 44 44 50 37 49 23 30 24 20 19 21 15 12 18 19 18 19 15 18 20 24 31 36 39 42 37 38 30 23 21 18 18 16 17 16 14 14 13 20
16 24 32 38 42 43 40 40 45 43 36 26 27 24 12 28 8 13 10 15 15 10 7 11 15 23 31 36 37 34 41 37 27 24 21 20 19 17 18 18 14 11 12 18
Wind_Direction
342 336 332 330 330 323 320 316 312 312 318 318 315 311 305 310 306 300 294 288 283 279 275 272 269 268 267 262 264 259 255 256 254 250 250 243 245 248 249 247 247 227 239 244
340 332 332 328 331 327 323 318 315 316 322 320 317 311 312 310 305 304 298 289 283 276 273 272 269 265 261 261 260 257 252 257 255 251 249 248 243 244 247 254 245 232 233 239
336 331 336 336 331 325 322 321 320 319 321 319 319 314 316 313 303 309 311 301 294 288 277 275 269 262 259 258 257 255 251 256 257 253 251 249 249 243 245 250 245 235 235 242
337 343 332 328 326 328 323 328 324 323 322 316 324 309 317 306 306 318 310 245 280 297 288 285 275 263 258 256 256 255 252 255 257 251 249 246 245 243 243 246 252 233 239 244
337 335 333 328 327 329 324 328 324 321 318 316 320 319 313 298 288 283 344 345 333 299 301 302 277 268 261 255 255 255 251 253 254 251 249 248 246 247 243 245 246 242 242 244
331 340 335 330 337 331 326 325 323 324 322 316 316 321 294 292 328 242 341 348 345 326 328 313 304 265 264 256 253 252 248 248 252 250 249 247 246 245 247 244 244 246 248 247
342 340 342 344 337 335 331 326 325 326 328 322 294 291 301 321 323 325 316 323 319 320 335 334 311 295 271 260 250 251 246 245 250 249 249 249 249 246 245 246 246 244 245 245
344 343 350 342 337 328 328 329 327 326 331 284 292 292 304 324 320 304 310 317 321 315 325 329 304 301 313 277 241 254 246 245 248 249 250 250 249 249 248 249 250 246 246 247
346 345 337 338 341 342 339 333 335 312 270 271 280 266 302 351 331 323 324 309 303 312 322 318 108 288 324 281 294 269 254 245 247 249 251 250 250 250 250 251 251 249 250 252
348 330 347 350 345 350 340 344 305 333 318 325 280 279 317 326 319 337 317 20 276 309 326 300 311 315 295 298 286 281 270 269 259 252 253 250 251 254 253 254 253 254 254 259
346 345 342 347 350 347 358 291 265 323 339 297 268 275 293 304 328 316 310 312 316 330 311 293 301 310 296 291 280 281 275 263 264 264 259 252 256 258 255 254 255 257 259 255
353 346 340 342 337 308 28 346 352 289 260 255 260 263 289 300 303 308 307 307 309 304 299 300 301 308 281 287 279 272 268 267 259 252 254 254 253 249 256 257 257 260 260 256
353 352 344 351 16 1 334 278 279 262 265 261 257 259 295 299 299 304 301 296 298 296 284 287 297 290 293 284 284 273 269 265 263 257 247 247 260 251 255 259 260 259 257 258
343 334 330 332 327 284 284 275 266 274 261 263 258 268 273 308 308 307 301 299 292 291 286 279 277 284 287 279 274 274 270 267 264 261 253 252 249 252 256 256 258 250 241 235
348 338 334 327 317 276 276 272 273 300 266 285 324 270 324 320 313 306 297 296 288 283 285 279 273 274 277 274 274 264 268 266 265 260 257 253 250 245 252 257 250 245 247 245
348 336 338 318 316 276 278 279 296 331 334 329 322 318 321 319 318 312 308 299 293 285 280 278 272 266 263 268 265 269 264 264 264 260 257 254 258 234 245 247 237 239 238 235
317 321 335 323 336 298 292 330 347 335 338 333 329 325 322 320 317 306 299 303 298 291 272 270 261 263 258 258 262 258 261 262 264 258 255 251 254 232 238 236 231 229 235 235
321 324 327 327 319 309 324 333 337 336 336 335 328 331 332 308 296 289 290 278 276 292 292 278 264 259 261 254 254 257 257 262 259 249 249 249 242 230 225 223 227 227 214 239
333 340 338 338 333 286 313 342 337 333 288 337 341 336 311 315 311 286 337 328 317 316 299 280 274 260 257 252 248 250 252 253 246 242 243 250 243 226 217 221 215 219 198 228
351 342 336 334 304 295 310 329 331 340 337 355 339 333 315 322 328 285 291 288 279 270 303 293 271 264 254 249 245 244 244 240 239 236 239 245 236 217 205 208 196 201 199 180
336 336 331 331 278 282 325 324 327 336 331 333 340 322 333 318 312 290 295 294 288 272 259 291 278 260 246 245 240 239 236 230 235 230 235 232 225 209 192 192 190 183 173 148
339 340 339 346 284 299 317 315 341 346 326 338 322 317 312 301 289 295 299 306 293 289 325 243 269 258 237 239 237 234 230 229 227 230 232 215 199 199 193 172 174 174 164 139
342 345 330 335 284 275 311 314 338 337 342 344 296 298 304 292 282 293 299 306 346 30 14 281 156 231 223 226 230 226 223 225 223 226 206 194 191 181 182 172 162 163 149 139
335 339 337 293 316 290 309 322 319 342 346 307 295 288 302 313 282 288 295 301 9 54 74 52 10 139 221 218 222 218 218 216 220 212 196 187 184 175 180 185 175 164 148 157
330 335 337 301 292 298 313 322 333 315 334 298 298 291 283 275 284 285 287 292 47 57 91 105 151 191 199 207 208 210 210 209 213 196 186 182 181 176 183 189 181 163 170 188
347 344 329 292 305 306 295 303 313 309 303 300 299 296 288 283 279 278 275 280 318 334 151 167 185 194 186 193 202 202 201 205 196 180 179 179 170 174 181 175 169 171 173 196